Rbgn^[z[y[W
メイン
   新天体発見情報
     Comet P/2005 XA54 = 2020 V1 (LONEOS-Hill)
投稿するにはまず登録を

スレッド表示 | 新しいものから 前のトピック | 次のトピック | 下へ
投稿者 スレッド
佐藤裕久
投稿日時: 2020-11-30 17:32
モデレータ
登録日: 2005-6-12
居住地: 日本
投稿: 2548
オンライン
Comet P/2005 XA54 = 2020 V1 (LONEOS-Hill)

D. Rankinの通報によると、11月16.5日UT、Lemmonサーベイの 1.5-m 反射望遠鏡で得た 
CCD 画像から 10"のコマのある新彗星を発見し、小惑星センターの PCCP webpage に
掲載された。M. Rudenko は、Rankin がその後すぐに、"この彗星は P/2005 XA54(IAUC
 8656参照)の検出ではないか"と小惑星センターに通知したことを記した。
Rudenkoは、MPCの自動化されたルーチンが明らかに、11月3.5日と5.5日UT、"Zwicky 
Transient Facility" (ZTF)サーベイのコースに、Palomar 1.2-m Schmidt望遠鏡で得た
先のCCD位置観測と同定したことを付け加えた。

検出位置は次のとおり、

     2020 UT             R.A. (2000) Decl.       Mag.
     Nov.  3.48620    9 40 05.20   + 5 21 35.7   19.5
           3.52436    9 40 10.11   + 5 21 21.0   19.1
           5.47418    9 44 23.77   + 5 08 47.8   19.7
           5.52560    9 44 30.41   + 5 08 28.4   19.1

NK 3662およびICQ's 2020 Comet Handbookの中野主一氏の予報に対し、Delta(T)は、-1.14 
daysであった。MPC 7570のG. V. Williamsの予報に対するDelta(T)は、-1.08 daysであった。
彗星年表2020の佐藤裕久の予報に対する修正値は、Delta(T) = -1.13 daysであった。

MPCの連結軌道要素と位置推算表は次のとおり、

Orbital elements:
    P/2005 XA54 (LONEOS-Hill)                                                   
Epoch 2006 Mar. 6.0 TT = JDT 2453800.5                                          
T 2006 Mar. 7.90556 TT                                  Rudenko                 
q   1.7776384            (2000.0)            P               Q                  
n   0.06490671     Peri.   15.35929     -0.93064831     -0.32412933             
a   6.1321060      Node   144.24830     +0.29758705     -0.94046631             
e   0.7101096      Incl.   16.89548     +0.21292175     -0.10229022             
P  15.2                                                                         
From 570 observations 2005 Dec. 4-2020 Nov. 17, mean residual 0".5.             
                                                                                
    P/2005 XA54 (LONEOS-Hill)                                                   
Epoch 2021 Jan. 26.0 TT = JDT 2459240.5                                         
T 2021 Jan. 28.17150 TT                                 Rudenko                 
q   1.7540419            (2000.0)            P               Q                  
n   0.06622123     Peri.   15.13680     -0.92552029     -0.33616105             
a   6.0506854      Node   143.67110     +0.30964298     -0.93684958             
e   0.7101086      Incl.   17.11857     +0.21802162     -0.09648115             
P  14.9                                                                         
From 570 observations 2005 Dec. 4-2020 Nov. 17, mean residual 0".5.             
                                                                                
    P/2005 XA54 (LONEOS-Hill)                                                   
Epoch 2020 Dec. 17.0 TT = JDT 2459200.5                                         
T 2021 Jan. 28.17268 TT                                 Rudenko                 
q   1.7540395            (2000.0)            P               Q                  
n   0.06621225     Peri.   15.13758     -0.92552486     -0.33614904             
a   6.0512320      Node   143.67108     +0.30963053     -0.93685339             
e   0.7101351      Incl.   17.11845     +0.21801988     -0.09648605             
P  14.9                                                                         
From 570 observations 2005 Dec. 4-2020 Nov. 17, mean residual 0".5.             
                                                                                
Ephemeris:
Date    TT    R. A. (2000) Decl.     Delta      r    Elong.  Phase   m1
2020 10 18    09 04 36.9 +07 07 21   2.2110  2.0676    68.6    26.7  18.9
...
2020 11 02    09 36 51.8 +05 31 14   1.9960  1.9896    75.2    28.8  18.5
...
2020 11 10    09 54 13.5 +04 40 00   1.8850  1.9514    78.8    29.9  18.3
...
2020 11 16    10 07 17.8 +04 02 49   1.8037  1.9245    81.5    30.5  18.1
2020 11 17    10 09 28.7 +03 56 48   1.7903  1.9201    81.9    30.7  18.1
2020 11 18    10 11 39.6 +03 50 49   1.7770  1.9159    82.4    30.8  18.1
...
2020 11 24    10 24 45.5 +03 16 28   1.6983  1.8911    85.2    31.3  17.9
...
2020 12 02    10 42 13.7 +02 35 40   1.5970  1.8609    88.9    32.0  17.7
...
2020 12 17    11 14 46.0 +01 42 16   1.4193  1.8133    96.3    32.6  17.3

(MPEC 2020-W25, CBET 4885, oaa-comet 1310)

スレッド表示 | 新しいものから 前のトピック | 次のトピック | トップ

投稿するにはまず登録を
 
© 1999 Tsutomu Seki.